Wheeling, WV

8:30 AM EST on December 06, 2019 (GMT -0500)
Wheeling-Ohio County

Weather History for KHLG - October, 2019

Change the Weather History Date:

Saturday, October 19, 2019

  Actual Average Record
Temperature  
Mean Temperature 50 °F 52 °F  
Max Temperature 67 °F 62 °F 80 °F (1938)
Min Temperature 33 °F 43 °F 25 °F (1931)
Degree Days  
Heating Degree Days 15 13  
Month to date heating degree days 154 194  
Since 1 July heating degree days 155 295  
Cooling Degree Days 0 0  
Month to date cooling degree days 40 10  
Year to date cooling degree days 986 688  
Moisture  
Dew Point 39 °F    
Average Humidity 66    
Maximum Humidity 92    
Minimum Humidity 40    
Precipitation  
Precipitation 0.00 in 0.08 in 2.13 in (1916)
Month to date precipitation 2.45 1.59  
Year to date precipitation 30.43 31.36  
Sea Level Pressure  
Sea Level Pressure 29.99 in    
Wind  
Wind Speed 3 mph (SSE)    
Max Wind Speed 13 mph    
Max Gust Speed 16 mph    
Visibility 10 miles    
Events      
T = Trace of Precipitation, MM = Missing Value Source: NWS Daily Summary

Daily Weather History Graph

Daily Weather History Graph

Search for Another Location

Airport or City:

Astronomy

Oct. 19, 2019 Rise Set
Actual Time 7:37 AM EDT 6:37 PM EDT
Civil Twilight 7:09 AM EDT 7:04 PM EDT
Nautical Twilight 6:38 AM EDT 7:36 PM EDT
Astronomical Twilight 6:06 AM EDT 8:07 PM EDT
Moon 10:44 PM EDT (10/19) 1:08 PM EDT (10/19)
Length of Visible Light 11h 55m
Length of Day
11h 00m
Waning Gibbous, 70% of the Moon is Illuminated
Oct 19
Waning Gibbous
Oct 21
Last Quarter
Oct 27
New
Nov 4
First Quarter
Nov 12
Full

Hourly Weather History & Observations

Time (EDT) Temp. Windchill Dew Point Humidity Pressure Visibility Wind Dir Wind Speed Gust Speed Precip Events Conditions
12:53 AM 39.9 °F - 36.0 °F 86% 30.06 in 10.0 mi Calm Calm - N/A   Clear
1:53 AM 39.0 °F - 36.0 °F 89% 30.06 in 10.0 mi Calm Calm - N/A   Clear
2:53 AM 37.9 °F - 35.1 °F 89% 30.07 in 10.0 mi Calm Calm - N/A   Clear
3:53 AM 37.0 °F - 35.1 °F 93% 30.07 in 10.0 mi Calm Calm - N/A   Clear
4:53 AM 37.0 °F - 34.0 °F 89% 30.06 in 10.0 mi Calm Calm - N/A   Clear
5:53 AM 36.0 °F - 33.1 °F 89% 30.06 in 10.0 mi Calm Calm - N/A   Clear
6:53 AM 35.1 °F - 33.1 °F 92% 30.06 in 10.0 mi Calm Calm - N/A   Clear
7:53 AM 37.0 °F - 33.1 °F 86% 30.07 in 10.0 mi Calm Calm - N/A   Clear
8:53 AM 39.0 °F - 36.0 °F 89% 30.07 in 10.0 mi Calm Calm - N/A   Clear
9:53 AM 46.0 °F 42.5 °F 39.0 °F 76% 30.04 in 10.0 mi ESE 6.9 mph - N/A   Clear
10:53 AM 52.0 °F - 39.9 °F 63% 30.03 in 10.0 mi East 8.1 mph - N/A   Clear
11:53 AM 55.9 °F - 39.9 °F 55% 30.03 in 10.0 mi SE 8.1 mph - N/A   Clear
12:53 PM 60.1 °F - 39.9 °F 47% 30.01 in 10.0 mi SSE 3.5 mph - N/A   Clear
1:53 PM 63.0 °F - 41.0 °F 45% 29.98 in 10.0 mi SSW 8.1 mph - N/A   Clear
2:53 PM 64.0 °F - 41.0 °F 43% 29.94 in 10.0 mi SE 9.2 mph - N/A   Clear
3:53 PM 66.0 °F - 41.0 °F 40% 29.92 in 10.0 mi South 4.6 mph - N/A   Clear
4:53 PM 64.0 °F - 41.0 °F 43% 29.92 in 10.0 mi SW 3.5 mph - N/A   Clear
5:53 PM 63.0 °F - 42.1 °F 46% 29.91 in 10.0 mi South 3.5 mph - N/A   Clear
6:53 PM 61.0 °F - 42.1 °F 50% 29.92 in 10.0 mi Calm Calm - N/A   Clear
7:53 PM 59.0 °F - 43.0 °F 55% 29.92 in 10.0 mi SE 3.5 mph - N/A   Clear
8:53 PM 57.0 °F - 42.1 °F 57% 29.90 in - Calm Calm - N/A   Clear
9:53 PM 55.0 °F - 42.1 °F 62% 29.90 in - SSE 3.5 mph - N/A   Clear
10:53 PM 53.1 °F - 41.0 °F 64% 29.90 in 10.0 mi SSE 3.5 mph - N/A   Clear
11:53 PM 51.1 °F - 41.0 °F 68% 29.90 in 10.0 mi SE 5.8 mph - N/A   Clear